Date String (YYYY-MM-DD hh:mm:ss) UTC,Instrument flags,Ambient pressure (hPa),Sample flow (lpm),Bypass flow (lpm),Sample temperature (°C),Ambient temperature (°C),ASC tube jacket temperature (°C),LED temperature (°C),Box temperature (°C),Sample RH (%),Span deviation,Mass concentration (μg/m³),Mass concentration (μg/m³),Mass concentration (μg/m³)
DateTimeUTC,F1_M11,P_M11,Q1_M11,Q2_M11,T1_M11,T2_M11,T3_M11,T4_M11,T5_M11,U1_M11,ZSPAN_M11,X0_M11,X2_M11,X1_M11
2022-10-11 23:00:00,,0820.1,4.99,0.00,29.7,28.6,00.0,38.3,31.6,09.4,0000.0,0011.68,0004.29,0003.80
2022-10-11 23:01:00,,0820.1,5.00,0.00,29.7,28.6,00.0,38.3,31.6,09.1,0000.0,0010.55,0004.33,0003.80
2022-10-11 23:02:00,,0820.2,5.01,0.00,29.7,28.6,00.0,38.4,31.6,09.1,0000.0,0011.65,0004.32,0003.79
2022-10-11 23:03:00,,0820.1,4.98,0.00,29.7,28.6,00.0,38.4,31.6,09.1,0000.0,0011.99,0004.32,0003.79
2022-10-11 23:04:00,,0820.0,5.00,0.00,29.8,28.6,00.0,38.4,31.7,09.3,0000.0,0010.83,0004.26,0003.78
2022-10-11 23:05:00,,0820.0,5.00,0.00,29.8,28.6,00.0,38.4,31.7,09.3,0000.0,0010.78,0004.26,0003.78
2022-10-11 23:06:00,,0820.2,4.98,0.00,29.8,28.6,00.0,38.4,31.7,09.3,0000.0,0010.85,0004.28,0003.79
2022-10-11 23:07:00,,0820.2,5.00,0.00,29.8,28.6,00.0,38.5,31.7,09.2,0000.0,0010.84,0004.30,0003.81
2022-10-11 23:08:00,,0820.2,5.01,0.00,29.8,28.6,00.0,38.5,31.7,09.2,0000.0,0010.86,0004.32,0003.83
2022-10-11 23:09:00,,0820.2,4.98,0.00,29.8,28.6,00.0,38.5,31.7,09.2,0000.0,0010.76,0004.35,0003.84
2022-10-11 23:10:00,,0820.2,5.00,0.00,29.8,28.6,00.0,38.5,31.7,09.3,0000.0,0010.26,0004.38,0003.84
2022-10-11 23:11:00,,0820.3,5.01,0.00,29.8,28.6,00.0,38.5,31.7,09.0,0000.0,0010.09,0004.38,0003.83
2022-10-11 23:12:00,,0820.3,4.99,0.00,29.8,28.6,00.0,38.5,31.7,09.0,0000.0,0009.47,0004.33,0003.82
2022-10-11 23:13:00,,0820.2,4.99,0.00,29.9,28.6,00.0,38.5,31.7,09.0,0000.0,0008.20,0004.31,0003.82
2022-10-11 23:14:00,,0820.2,5.00,0.00,29.9,28.6,00.0,38.5,31.8,09.2,0000.0,0007.75,0004.29,0003.81
2022-10-11 23:15:00,,0820.2,4.99,0.00,29.9,28.6,00.0,38.6,31.7,09.0,0000.0,0008.01,0004.30,0003.81
2022-10-11 23:16:00,,0820.2,5.00,0.00,29.9,28.6,00.0,38.6,31.7,09.1,0000.0,0008.07,0004.31,0003.80
2022-10-11 23:17:00,,0820.2,5.01,0.00,29.9,28.6,00.0,38.6,31.7,09.0,0000.0,0008.22,0004.29,0003.79
2022-10-11 23:18:00,,0820.3,5.01,0.00,29.9,28.6,00.0,38.6,31.7,09.0,0000.0,0008.57,0004.26,0003.78
2022-10-11 23:19:00,,0820.2,4.99,0.00,29.9,28.6,00.0,38.6,31.7,09.1,0000.0,0008.55,0004.24,0003.77
2022-10-11 23:20:00,,0820.2,5.00,0.00,29.9,28.6,00.0,38.6,31.7,09.1,0000.0,0008.51,0004.23,0003.76
2022-10-11 23:21:00,,0820.3,5.01,0.00,29.9,28.6,00.0,38.6,31.7,09.0,0000.0,0008.63,0004.19,0003.75
2022-10-11 23:22:00,,0820.4,5.00,0.00,30.0,28.6,00.0,38.6,31.8,09.0,0000.0,0008.60,0004.18,0003.75
2022-10-11 23:23:00,,0820.5,4.99,0.00,30.0,28.7,00.0,38.7,31.8,08.7,0000.0,0008.47,0004.15,0003.73
2022-10-11 23:24:00,,0820.4,5.00,0.00,30.0,28.7,00.0,38.7,31.8,09.0,0000.0,0008.35,0004.11,0003.73
2022-10-11 23:25:00,,0820.5,5.01,0.00,30.0,28.5,00.0,38.7,31.9,08.9,0000.0,0008.60,0004.14,0003.72
2022-10-11 23:26:00,,0820.5,5.01,0.00,30.0,27.2,00.0,38.7,31.7,08.8,0000.0,0008.42,0004.14,0003.73
2022-10-11 23:27:00,,0820.6,4.99,0.00,29.9,26.6,00.0,38.6,31.6,09.0,0000.0,0007.98,0004.11,0003.72
2022-10-11 23:28:00,,0820.6,5.01,0.00,29.9,26.7,00.0,38.6,31.4,09.1,0000.0,0007.83,0004.10,0003.71
2022-10-11 23:29:00,,0820.6,5.00,0.00,29.8,27.0,00.0,38.6,31.4,08.9,0000.0,0007.35,0004.11,0003.71
2022-10-11 23:30:00,,0820.6,4.99,0.00,29.7,27.3,00.0,38.5,31.4,08.9,0000.0,0007.41,0004.12,0003.69
2022-10-11 23:31:00,,0820.6,5.00,0.00,29.7,27.5,00.0,38.5,31.4,09.1,0000.0,0007.23,0004.07,0003.68
2022-10-11 23:32:00,,0820.6,5.00,0.00,29.7,27.6,00.0,38.5,31.5,08.9,0000.0,0007.06,0004.08,0003.68
2022-10-11 23:33:00,,0820.6,5.01,0.00,29.7,27.8,00.0,38.5,31.5,09.1,0000.0,0006.88,0004.07,0003.67
2022-10-11 23:34:00,,0820.7,5.00,0.00,29.7,27.9,00.0,38.5,31.5,09.1,0000.0,0006.97,0004.04,0003.64
2022-10-11 23:35:00,,0820.6,4.99,0.00,29.7,28.0,00.0,38.5,31.5,09.0,0000.0,0007.94,0004.01,0003.63
2022-10-11 23:36:00,,0820.7,5.00,0.00,29.7,28.1,00.0,38.5,31.5,08.9,0000.0,0007.73,0003.97,0003.62
2022-10-11 23:37:00,,0820.8,5.00,0.00,29.7,28.1,00.0,38.4,31.5,09.0,0000.0,0007.57,0003.95,0003.61
2022-10-11 23:38:00,,0820.7,4.99,0.00,29.7,28.2,00.0,38.4,31.5,08.9,0000.0,0007.52,0003.93,0003.61
2022-10-11 23:39:00,,0820.7,5.00,0.00,29.7,28.2,00.0,38.5,31.5,08.9,0000.0,0007.57,0003.96,0003.62
2022-10-11 23:40:00,,0820.8,5.01,0.00,29.7,28.3,00.0,38.5,31.5,09.0,0000.0,0007.59,0003.97,0003.63
2022-10-11 23:41:00,,0820.7,5.00,0.00,29.7,28.3,00.0,38.5,31.5,08.9,0000.0,0007.50,0003.94,0003.64
2022-10-11 23:42:00,,0820.8,4.99,0.00,29.7,28.3,00.0,38.5,31.5,08.9,0000.0,0007.55,0003.98,0003.67
2022-10-11 23:43:00,,0820.9,5.01,0.00,29.7,28.3,00.0,38.5,31.6,08.8,0000.0,0007.49,0004.00,0003.69
2022-10-11 23:44:00,,0820.9,5.00,0.00,29.7,28.3,00.0,38.5,31.6,08.8,0000.0,0007.52,0004.03,0003.71
2022-10-11 23:45:00,,0821.0,4.99,0.00,29.8,28.3,00.0,38.5,31.6,08.9,0000.0,0007.52,0004.07,0003.74
2022-10-11 23:46:00,,0821.0,5.01,0.00,29.8,28.3,00.0,38.5,31.6,08.9,0000.0,0006.16,0004.10,0003.78
2022-10-11 23:47:00,,0821.0,5.00,0.00,29.8,28.4,00.0,38.5,31.6,08.8,0000.0,0006.71,0004.13,0003.80
2022-10-11 23:48:00,,0821.0,4.99,0.00,29.8,28.4,00.0,38.5,31.6,08.9,0000.0,0007.26,0004.13,0003.81
2022-10-11 23:49:00,,0821.1,5.01,0.00,29.8,28.4,00.0,38.5,31.7,08.8,0000.0,0007.98,0004.15,0003.82
2022-10-11 23:50:00,,0821.0,5.00,0.00,29.8,28.4,00.0,38.5,31.7,08.6,0000.0,0008.50,0004.16,0003.82
2022-10-11 23:51:00,,0821.0,5.00,0.00,29.8,28.5,00.0,38.5,31.7,08.5,0000.0,0008.97,0004.19,0003.83
2022-10-11 23:52:00,,0821.1,5.01,0.00,29.8,28.5,00.0,38.5,31.7,08.1,0000.0,0009.23,0004.22,0003.85
2022-10-11 23:53:00,,0821.1,5.00,0.00,29.8,28.5,00.0,38.6,31.7,08.0,0000.0,0009.73,0004.24,0003.87
2022-10-11 23:54:00,,0821.1,5.01,0.00,29.8,28.5,00.0,38.6,31.7,08.5,0000.0,0009.88,0004.26,0003.89
2022-10-11 23:55:00,,0821.2,5.00,0.00,29.8,28.5,00.0,38.6,31.7,08.4,0000.0,0009.78,0004.25,0003.89
2022-10-11 23:56:00,,0821.2,5.00,0.00,29.9,28.5,00.0,38.6,31.7,08.1,0000.0,0009.92,0004.26,0003.90
2022-10-11 23:57:00,,0821.1,5.00,0.00,29.9,28.5,00.0,38.6,31.7,08.3,0000.0,0010.08,0004.29,0003.91
2022-10-11 23:58:00,,0821.1,5.01,0.00,29.9,28.6,00.0,38.6,31.8,08.5,0000.0,0009.89,0004.34,0003.91
2022-10-11 23:59:00,,0821.1,5.01,0.00,29.9,28.6,00.0,38.6,31.7,08.5,0000.0,0009.57,0004.37,0003.91
